#timestamp,LO_Frequency,Hit,StdDev 
1561543215.5,286047003.9,N
1561543235.3,286047003.7,N
1561543255.1,286047005.6,N
1561543275.9,286047003.2,N
1561543295.7,286047004.1,N
1561543315.5,286047002.5,N
1561543335.4,286047001.9,N
1561543355.2,286047004.8,N
1561543375.1,286047004.7,N
1561543376.0,286047004.7,N
1561543395.8,286047005.4,N
1561543415.6,286047005.1,N
1561543435.5,286047004.9,N
1561543455.3,286047004.6,N
1561543475.1,286047003.8,N
1561543495.9,286047002.7,N
1561543515.7,286047002.5,N
1561543535.6,286047001.9,N
1561543555.4,286047001.3,N
1561543575.2,286047004.4,N
1561543595.1,286047004.3,N
1561543596.0,286047004.3,N
1561543615.8,286047001.3,N
1561543635.6,286047001.3,N
1561543655.5,286047002.6,N
1561543675.3,286047001.4,N
1561543695.2,286047004.2,N
1561543715.9,286047001.6,N
1561543735.7,286047002.8,N
1561543755.6,286047002.1,N
1561543775.4,286047001.3,N
1561543795.2,286047003.7,N
1561543815.1,286047004.3,Y
1561543816.0,286047004.3,P
1561543835.8,286047001.1,N
1561543855.7,286046999.6,N
1561543875.5,286046998.8,N
1561543895.3,286046996.7,N
1561543915.2,286046997.5,N
1561543935.9,286046998.0,N
1561543955.7,286047001.2,N
1561543975.6,286046998.8,N
1561543995.4,286046995.4,N
1561544015.3,286046997.3,N
1561544035.1,286046995.7,N
1561544036.0,286046995.7,N
1561544055.8,286046997.6,N
1561544075.7,286046996.2,N
1561544095.5,286046995.8,N
1561544115.3,286046997.9,N
1561544135.2,286046996.6,N
1561544155.0,286047000.7,N
1561544155.9,286047000.7,N
1561544175.8,286047000.6,N
1561544195.6,286046999.1,N
1561544215.4,286046995.3,N
1561544235.3,286046994.0,N
1561544255.1,286046993.0,N
1561544275.8,286046989.0,Y
1561544295.7,286046990.4,P
1561544315.5,286046989.3,N
1561544335.4,286046989.9,N
1561544355.2,286046988.2,Y
1561544375.0,286046994.6,P
1561544375.9,286046994.6,P
1561544395.8,286046992.5,P
1561544415.6,286046990.3,Y
1561544435.4,286046997.4,P
1561544455.3,286046994.9,N
1561544475.1,286046997.8,N
1561544495.9,286046995.0,N
1561544515.7,286046995.5,N
1561544535.5,286046994.1,Y
1561544555.4,286047001.2,P
1561544575.2,286046999.3,N
1561544595.1,286046998.7,N
1561544596.0,286046998.7,N
1561544615.8,286047000.7,N
1561544635.6,286046998.3,N
1561544655.5,286046998.9,N
1561544675.3,286046999.4,N
1561544695.2,286046999.2,N
1561544715.9,286046995.8,Y
1561544735.7,286046995.8,P
1561544755.6,286046994.9,P
1561544775.4,286046996.3,N
1561544795.3,286046991.8,Y
1561544815.1,286046996.5,P
1561544816.0,286046996.5,P
1561544835.8,286046996.5,P
1561544855.7,286046997.0,Y
1561544875.5,286047000.6,P
1561544895.3,286047001.1,N
1561544915.2,286046998.1,N
1561544935.0,286047001.1,N
1561544935.9,286047001.1,N
1561544955.8,286047000.3,N
1561544975.6,286047000.6,N
1561544995.4,286047002.6,N
1561545015.3,286047002.3,N
1561545035.1,286047002.2,N
1561545055.8,286047002.6,N
1561545075.7,286047000.7,N
1561545095.5,286046999.3,N
1561545115.4,286046999.3,N
1561545135.2,286046997.0,N
1561545155.0,286046999.6,N
1561545155.9,286046999.6,N
1561545175.8,286047001.1,N
1561545195.6,286047002.6,N
1561545215.4,286047002.5,N
1561545235.3,286047003.7,N
1561545255.1,286047005.9,Y
1561545275.9,286047004.8,P
1561545295.7,286047005.8,N
1561545315.5,286047005.2,N
1561545335.4,286047006.4,Y
1561545355.2,286046999.7,P
1561545375.0,286047004.1,N
1561545375.9,286047004.1,N
1561545395.8,286047004.2,N
1561545415.6,286047003.9,N
1561545435.5,286047004.0,N
1561545455.3,286047003.4,N
1561545475.1,286047001.3,N
1561545495.9,286047003.2,N
1561545515.7,286047003.8,N
1561545535.5,286047004.7,Y
1561545555.4,286047001.7,P
1561545575.2,286047003.1,P
1561545595.1,286047003.2,P
1561545596.0,286047003.2,Y
1561545615.8,286047001.0,P
1561545635.6,286046999.9,N
1561545655.5,286046999.9,N
1561545675.3,286047002.5,N
1561545695.1,286047000.9,N
1561545715.9,286046999.9,N
1561545735.7,286046999.7,N
1561545755.6,286047004.3,Y
1561545775.4,286047000.0,P
1561545795.2,286047000.4,N
1561545815.1,286047000.9,N
1561545816.0,286047000.9,N
1561545835.8,286047002.0,Y
1561545855.7,286047003.9,P
1561545875.5,286047003.9,N
1561545895.3,286047004.4,N
1561545915.2,286047001.5,N
1561545935.9,286047001.8,N
1561545955.7,286047002.9,N
1561545975.6,286047004.1,Y
1561545995.4,286046999.9,P
1561546015.3,286047000.5,N
1561546035.1,286047001.9,N
1561546036.0,286047001.9,N
1561546055.8,286047001.7,N
1561546075.7,286047002.5,N
1561546095.5,286047002.1,N
1561546115.3,286047002.5,N
1561546135.2,286047000.6,N
1561546155.0,286047002.0,N
1561546155.9,286047002.0,N
1561546175.8,286047002.8,Y
1561546195.6,286047001.2,P
1561546215.4,286046999.6,N
1561546235.3,286046998.3,N
1561546255.1,286046998.2,N
1561546275.9,286047001.0,N
1561546295.7,286047001.1,N
1561546315.5,286046999.9,N
1561546335.4,286047002.2,N
1561546355.2,286047002.3,N
1561546375.0,286047002.8,N
1561546375.9,286047002.8,N
1561546395.8,286047001.8,N
1561546415.6,286047004.0,N
1561546435.5,286047001.9,N
1561546455.3,286047002.6,N
1561546475.1,286047002.4,N
1561546495.9,286047000.3,N
1561546515.7,286046998.3,N
1561546535.5,286046998.1,N
1561546555.4,286047002.8,N
1561546575.2,286047002.6,N
1561546595.0,286046999.7,N
1561546596.0,286046999.7,N
1561546615.8,286047000.4,N
1561546635.6,286047002.4,N
1561546655.5,286047000.5,N
1561546675.3,286046998.6,N
1561546695.1,286047001.1,N
1561546715.9,286047001.2,N
1561546735.7,286046998.6,N
1561546755.5,286046998.9,N
1561546775.4,286047000.8,N
1561546795.2,286046998.2,N
